This is the latest recevied weather packets stored in our database for station/object IN3XSV-13. If no packets are shown the sender has not sent any weather packets the latest 10 day(s).
| Time | Temp. | Humidity | Pressure | Rain* | Wind** | Luminosity | Snow |
|---|---|---|---|---|---|---|---|
| 1787951863 | 20.56° C | 77% | 1008.4 hPa | 0 mm | - | - | - |
| 1787951563 | 20.56° C | 77% | 1008.5 hPa | 0 mm | - | - | - |
| 1787951263 | 21.11° C | 77% | 1008.7 hPa | 0 mm | - | - | - |
| 1787950963 | 21.11° C | 77% | 1008.8 hPa | 0 mm | - | - | - |
| 1787950663 | 20.56° C | 77% | 1008.7 hPa | 0 mm | - | - | - |
| 1787950363 | 20.56° C | 77% | 1008.8 hPa | 0 mm | - | - | - |
| 1787950063 | 21.11° C | 77% | 1008.8 hPa | 0 mm | - | - | - |
| 1787949763 | 21.11° C | 76% | 1008.8 hPa | 0 mm | - | - | - |
| 1787949463 | 21.11° C | 75% | 1008.9 hPa | 0 mm | - | - | - |
| 1787949163 | 20.56° C | 76% | 1009 hPa | 0 mm | - | - | - |
| 1787948863 | 20.56° C | 77% | 1008.9 hPa | 0 mm | - | - | - |
| 1787948563 | 20.56° C | 77% | 1008.9 hPa | 0 mm | - | - | - |
| 1787948263 | 20.56° C | 76% | 1009.3 hPa | 0 mm | - | - | - |
| 1787947963 | 21.11° C | 75% | 1009 hPa | 0 mm | - | - | - |
| 1787947663 | 21.11° C | 74% | 1008.8 hPa | 0 mm | - | - | - |
| 1787947363 | 21.67° C | 73% | 1009 hPa | 0 mm | - | - | - |
| 1787947063 | 21.67° C | 73% | 1008.7 hPa | 0 mm | - | - | - |
| 1787946763 | 22.22° C | 73% | 1009.2 hPa | 0 mm | - | - | - |
| 1787946463 | 21.67° C | 72% | 1009.2 hPa | 0 mm | - | - | - |
| 1787946163 | 21.67° C | 72% | 1009.2 hPa | 0 mm | - | - | - |
| 1787945863 | 21.67° C | 74% | 1009.4 hPa | 0 mm | - | - | - |
| 1787945563 | 21.11° C | 74% | 1009.1 hPa | 0 mm | - | - | - |
| 1787945263 | 21.11° C | 75% | 1008.9 hPa | 0 mm | - | - | - |
| 1787944963 | 21.11° C | 75% | 1008.8 hPa | 0 mm | - | - | - |
| 1787944663 | 21.11° C | 75% | 1008.8 hPa | 0.51 mm | - | - | - |
* Rain latest hour (hover to see other rain measurements)
** Current wind speed in m/s (hover to see current wind gust speed)